• In Romania
  • List of Countries
  • For 7 days
  • Water Temperature
  • Satellite Maps
  • Weather Map
  • Weather Widgets
  • user-avatar
    Login

    Hourly Weather Ischgl

    Today, 28 March, Tuesday

    Time Temperature Precipitation Wind Pressure Humidity
    00:00 -3°C° 0 mm 1 mps 574 mmHg 96%
    01:00 -4°C° 0 mm 1 mps 574 mmHg 95%
    02:00 -4°C° 0 mm 1 mps 574 mmHg 95%
    03:00 -4°C° 0 mm 1 mps 573 mmHg 95%
    04:00 -6°C° 0 mm 1 mps 573 mmHg 94%
    05:00 -6°C° 0 mm 1 mps 573 mmHg 93%
    06:00 -4°C° 0 mm 1 mps 574 mmHg 92%
    07:00 -3°C° 0 mm 1 mps 575 mmHg 88%
    08:00 -1°C° 0 mm 1 mps 576 mmHg 87%
    09:00 +1°C° 0 mm 1 mps 577 mmHg 87%
    10:00 +2°C° 0 mm 0 mps 578 mmHg 86%
    11:00 +3°C° 0 mm 0 mps 578 mmHg 85%
    12:00 +4°C° 0 mm 1 mps 578 mmHg 83%
    13:00 +5°C° 0 mm 1 mps 578 mmHg 81%
    14:00 +5°C° 0 mm 1 mps 578 mmHg 82%
    15:00 +4°C° 0 mm 1 mps 578 mmHg 82%
    16:00 +4°C° 0 mm 1 mps 578 mmHg 83%
    17:00 +2°C° 0 mm 1 mps 577 mmHg 87%
    18:00 0°C° 0 mm 1 mps 576 mmHg 92%
    19:00 -2°C° 0 mm 1 mps 575 mmHg 96%
    20:00 -2°C° 0 mm 1 mps 575 mmHg 96%
    21:00 -2°C° 0 mm 1 mps 576 mmHg 97%
    22:00 -2°C° 0 mm 1 mps 576 mmHg 97%
    23:00 -2°C° 0 mm 1 mps 576 mmHg 97%

    Tomorrow, 29 March, Wednesday

    Time Temperature Precipitation Wind Pressure Humidity
    00:00 -2°C° 0 mm 1 mps 576 mmHg 97%
    01:00 -2°C° 0 mm 1 mps 577 mmHg 97%
    02:00 -2°C° 0 mm 1 mps 576 mmHg 97%
    03:00 -3°C° 0 mm 1 mps 576 mmHg 97%
    04:00 -3°C° 0 mm 1 mps 576 mmHg 97%
    05:00 -3°C° 0 mm 1 mps 576 mmHg 96%
    06:00 -2°C° 0 mm 1 mps 577 mmHg 96%
    07:00 -2°C° 0 mm 1 mps 577 mmHg 95%
    08:00 0°C° 0 mm 1 mps 578 mmHg 90%
    09:00 +1°C° 0 mm 1 mps 579 mmHg 84%
    10:00 +3°C° 0 mm 1 mps 580 mmHg 79%
    11:00 +4°C° 0 mm 1 mps 580 mmHg 77%
    12:00 +5°C° 0 mm 1 mps 580 mmHg 75%
    13:00 +5°C° 0 mm 1 mps 580 mmHg 73%
    14:00 +5°C° 0 mm 1 mps 580 mmHg 74%
    15:00 +5°C° 0 mm 1 mps 580 mmHg 74%
    16:00 +5°C° 0 mm 1 mps 579 mmHg 75%
    17:00 +3°C° 0 mm 1 mps 578 mmHg 82%
    18:00 0°C° 0 mm 1 mps 577 mmHg 88%
    19:00 -2°C° 0 mm 1 mps 576 mmHg 95%
    20:00 -2°C° 0 mm 1 mps 576 mmHg 95%
    21:00 -2°C° 0 mm 1 mps 576 mmHg 96%
    22:00 -3°C° 0 mm 1 mps 577 mmHg 96%
    23:00 -3°C° 0 mm 1 mps 576 mmHg 95%

    Day after tomorrow, 30 March, Thursday

    Time Temperature Precipitation Wind Pressure Humidity
    00:00 -4°C° 0 mm 1 mps 576 mmHg 95%
    01:00 -4°C° 0 mm 1 mps 576 mmHg 94%
    02:00 -6°C° 0 mm 1 mps 576 mmHg 93%
    03:00 -6°C° 0 mm 1 mps 575 mmHg 91%
    04:00 -6°C° 0 mm 1 mps 575 mmHg 89%
    05:00 -4°C° 0 mm 1 mps 576 mmHg 85%
    06:00 -3°C° 0 mm 1 mps 576 mmHg 81%
    07:00 -2°C° 0 mm 1 mps 577 mmHg 77%
    08:00 0°C° 0 mm 1 mps 578 mmHg 72%
    09:00 +3°C° 0 mm 1 mps 579 mmHg 67%
    10:00 +6°C° 0 mm 1 mps 581 mmHg 62%
    11:00 +7°C° 0 mm 1 mps 581 mmHg 60%
    12:00 +8°C° 0 mm 1 mps 581 mmHg 59%
    13:00 +8°C° 0 mm 1 mps 581 mmHg 57%
    14:00 +8°C° 0 mm 1 mps 581 mmHg 60%
    15:00 +8°C° 0 mm 1 mps 581 mmHg 62%
    16:00 +7°C° 0 mm 1 mps 580 mmHg 65%
    17:00 +5°C° 0 mm 1 mps 579 mmHg 74%
    18:00 +2°C° 0 mm 1 mps 577 mmHg 84%
    19:00 -1°C° 0 mm 1 mps 576 mmHg 93%
    20:00 -1°C° 0 mm 1 mps 576 mmHg 93%
    21:00 -1°C° 0 mm 1 mps 576 mmHg 93%
    22:00 -1°C° 0 mm 1 mps 577 mmHg 93%
    23:00 -3°C° 0 mm 2 mps 577 mmHg 93%

    31 March, Friday

    Time Temperature Precipitation Wind Pressure Humidity
    00:00 -3°C° 0 mm 2 mps 577 mmHg 94%
    01:00 -3°C° 0 mm 2 mps 576 mmHg 94%
    02:00 -3°C° 0 mm 2 mps 576 mmHg 94%
    03:00 -3°C° 0 mm 2 mps 576 mmHg 94%
    04:00 -3°C° 0 mm 2 mps 575 mmHg 94%
    05:00 -3°C° 0 mm 2 mps 575 mmHg 92%
    06:00 -3°C° 0 mm 2 mps 575 mmHg 89%
    07:00 -3°C° 0 mm 2 mps 575 mmHg 87%
    08:00 -1°C° 0 mm 2 mps 576 mmHg 78%
    09:00 +2°C° 0 mm 2 mps 577 mmHg 69%
    10:00 +5°C° 0 mm 2 mps 578 mmHg 60%
    11:00 +5°C° 0 mm 2 mps 578 mmHg 58%
    12:00 +6°C° 0 mm 2 mps 578 mmHg 56%
    13:00 +7°C° 0 mm 2 mps 578 mmHg 54%
    14:00 +7°C° 0 mm 2 mps 577 mmHg 56%
    15:00 +6°C° 0 mm 2 mps 577 mmHg 58%
    16:00 +6°C° 0 mm 2 mps 576 mmHg 60%
    17:00 +4°C° 0.1 mm 2 mps 575 mmHg 70%
    18:00 +2°C° 0.1 mm 2 mps 574 mmHg 80%
    19:00 -2°C° 0.1 mm 2 mps 573 mmHg 90%
    20:00 -2°C° 0 mm 2 mps 573 mmHg 91%
    21:00 -2°C° 0 mm 2 mps 573 mmHg 91%
    22:00 -3°C° 0 mm 2 mps 573 mmHg 92%
    23:00 -3°C° 0 mm 2 mps 573 mmHg 92%

    1 April, Saturday

    Time Temperature Precipitation Wind Pressure Humidity
    00:00 -4°C° 0 mm 2 mps 572 mmHg 92%
    01:00 -4°C° 0 mm 2 mps 572 mmHg 92%
    02:00 -4°C° 0 mm 2 mps 572 mmHg 92%
    03:00 -4°C° 0 mm 2 mps 571 mmHg 91%
    04:00 -4°C° 0 mm 2 mps 571 mmHg 91%
    05:00 -4°C° 0 mm 2 mps 571 mmHg 89%
    06:00 -4°C° 0 mm 2 mps 572 mmHg 87%
    07:00 -3°C° 0 mm 2 mps 572 mmHg 85%
    08:00 -1°C° 0 mm 2 mps 573 mmHg 77%
    09:00 +3°C° 0 mm 1 mps 573 mmHg 69%
    10:00 +4°C° 0 mm 1 mps 574 mmHg 61%
    11:00 +4°C° 0.2 mm 2 mps 574 mmHg 61%
    12:00 +4°C° 0.2 mm 2 mps 574 mmHg 60%
    13:00 +5°C° 0.2 mm 2 mps 574 mmHg 60%
    14:00 +4°C° 0.6 mm 2 mps 574 mmHg 64%
    15:00 +4°C° 0.6 mm 2 mps 573 mmHg 67%
    16:00 +3°C° 0.6 mm 2 mps 573 mmHg 71%
    17:00 +2°C° 0.6 mm 2 mps 572 mmHg 78%
    18:00 +1°C° 0.6 mm 1 mps 571 mmHg 85%
    19:00 -1°C° 0.6 mm 1 mps 571 mmHg 92%
    20:00 -1°C° 0.3 mm 1 mps 571 mmHg 92%
    21:00 -4°C° 0.3 mm 2 mps 571 mmHg 93%
    22:00 -4°C° 0.3 mm 2 mps 571 mmHg 93%
    23:00 -4°C° 0.1 mm 2 mps 571 mmHg 93%

    2 April, Sunday

    Time Temperature Precipitation Wind Pressure Humidity
    00:00 -4°C° 0.1 mm 2 mps 571 mmHg 93%
    01:00 -5°C° 0.1 mm 2 mps 571 mmHg 92%
    02:00 -3°C° 0 mm 1 mps 571 mmHg 91%
    03:00 -3°C° 0 mm 1 mps 571 mmHg 90%
    04:00 -4°C° 0 mm 1 mps 571 mmHg 89%
    05:00 -3°C° 0 mm 1 mps 571 mmHg 86%
    06:00 -2°C° 0 mm 1 mps 572 mmHg 82%
    07:00 -2°C° 0 mm 1 mps 572 mmHg 78%
    08:00 0°C° 0 mm 1 mps 573 mmHg 72%
    09:00 +2°C° 0 mm 1 mps 574 mmHg 66%
    10:00 +4°C° 0 mm 1 mps 575 mmHg 60%
    11:00 +4°C° 0.2 mm 1 mps 575 mmHg 61%
    12:00 +5°C° 0.2 mm 1 mps 576 mmHg 63%
    13:00 +5°C° 0.2 mm 1 mps 576 mmHg 64%
    14:00 +4°C° 0.7 mm 1 mps 575 mmHg 71%
    15:00 +3°C° 0.7 mm 1 mps 574 mmHg 77%
    16:00 +2°C° 0.7 mm 1 mps 574 mmHg 84%
    17:00 +1°C° 1.3 mm 1 mps 573 mmHg 88%
    18:00 +1°C° 1.3 mm 1 mps 573 mmHg 93%
    19:00 0°C° 1.3 mm 1 mps 573 mmHg 97%
    20:00 -1°C° 1.5 mm 1 mps 573 mmHg 97%
    21:00 -1°C° 1.5 mm 1 mps 573 mmHg 97%
    22:00 -1°C° 1.5 mm 1 mps 573 mmHg 98%
    23:00 -1°C° 1.1 mm 1 mps 573 mmHg 98%
    Show more